Time,TemperatureF,DewpointF,PressureIn,WindDirection,WindDirectionDegrees,WindSpeedMPH,WindSpeedGustMPH,Humidity,HourlyPrecipIn,Conditions,Clouds,dailyrainin,SoftwareType,DateUTC
2013-01-19 00:01:00,25.5,6.2,30.20,NW,315,0.7,2.2,43,0.00,,,0.00,pywws,2013-01-19 05:01:00,
2013-01-19 00:02:00,25.5,6.2,30.20,South,180,1.6,3.1,43,0.00,,,0.00,pywws,2013-01-19 05:02:00,
2013-01-19 00:03:00,25.3,6.0,30.21,SW,225,1.6,2.2,43,0.00,,,0.00,pywws,2013-01-19 05:03:00,
2013-01-19 00:08:00,25.5,6.2,30.20,South,180,1.6,3.1,43,0.00,,,0.00,pywws,2013-01-19 05:08:00,
2013-01-19 00:14:00,25.3,6.0,30.19,North,0,1.6,3.1,43,0.00,,,0.00,pywws,2013-01-19 05:14:00,
2013-01-19 00:20:00,25.5,6.2,30.19,SE,135,1.6,3.8,43,0.00,,,0.00,pywws,2013-01-19 05:20:00,
2013-01-19 00:25:00,25.5,6.2,30.19,SE,135,1.6,3.1,43,0.00,,,0.00,pywws,2013-01-19 05:25:00,
2013-01-19 00:31:00,25.7,6.3,30.19,West,270,1.6,4.5,43,0.00,,,0.00,pywws,2013-01-19 05:31:00,
2013-01-19 00:36:00,26.1,6.7,30.20,South,180,1.6,3.8,43,0.00,,,0.00,pywws,2013-01-19 05:36:00,
2013-01-19 00:42:00,26.1,6.7,30.19,South,180,0.7,1.6,43,0.00,,,0.00,pywws,2013-01-19 05:42:00,
2013-01-19 00:47:00,26.1,6.7,30.19,NW,315,1.6,3.1,43,0.00,,,0.00,pywws,2013-01-19 05:47:00,
2013-01-19 00:52:00,26.4,7.0,30.19,SE,135,3.1,4.5,43,0.00,,,0.00,pywws,2013-01-19 05:52:00,
2013-01-19 00:58:00,26.6,6.6,30.19,NW,315,3.1,3.8,42,0.00,,,0.00,pywws,2013-01-19 05:58:00,
2013-01-19 01:04:00,26.6,6.6,30.19,SW,225,1.6,3.1,42,0.00,,,0.00,pywws,2013-01-19 06:04:00,
2013-01-19 01:09:00,26.6,6.6,30.19,South,180,3.1,5.4,42,0.00,,,0.00,pywws,2013-01-19 06:09:00,
2013-01-19 01:15:00,26.8,6.3,30.19,North,0,3.8,5.4,41,0.00,,,0.00,pywws,2013-01-19 06:15:00,
2013-01-19 01:20:00,26.8,6.3,30.19,West,270,1.6,3.1,41,0.00,,,0.00,pywws,2013-01-19 06:20:00,
2013-01-19 01:26:00,26.8,6.3,30.19,SW,225,4.5,7.6,41,0.00,,,0.00,pywws,2013-01-19 06:26:00,
2013-01-19 01:31:00,26.8,6.3,30.19,SE,135,3.8,7.6,41,0.00,,,0.00,pywws,2013-01-19 06:31:00,
2013-01-19 01:36:00,26.8,6.3,30.19,WSW,248,4.5,6.9,41,0.00,,,0.00,pywws,2013-01-19 06:36:00,
2013-01-19 01:42:00,26.8,6.3,30.19,SW,225,3.1,8.3,41,0.00,,,0.00,pywws,2013-01-19 06:42:00,
2013-01-19 01:48:00,26.8,6.3,30.19,West,270,4.5,11.4,41,0.00,,,0.00,pywws,2013-01-19 06:48:00,
2013-01-19 01:53:00,26.8,6.8,30.19,East,90,3.8,6.9,42,0.00,,,0.00,pywws,2013-01-19 06:53:00,
2013-01-19 01:59:00,26.8,6.3,30.19,South,180,4.5,9.8,41,0.00,,,0.00,pywws,2013-01-19 06:59:00,
2013-01-19 02:04:00,26.8,6.3,30.18,NE,45,2.2,5.4,41,0.00,,,0.00,pywws,2013-01-19 07:04:00,
2013-01-19 02:10:00,26.6,6.1,30.18,SE,135,3.8,7.6,41,0.00,,,0.00,pywws,2013-01-19 07:10:00,
2013-01-19 02:16:00,26.6,6.1,30.18,West,270,2.2,3.1,41,0.00,,,0.00,pywws,2013-01-19 07:16:00,
2013-01-19 02:21:00,26.4,7.0,30.18,South,180,2.2,4.5,43,0.00,,,0.00,pywws,2013-01-19 07:21:00,
2013-01-19 02:27:00,26.4,7.0,30.17,West,270,5.4,11.4,43,0.00,,,0.00,pywws,2013-01-19 07:27:00,
2013-01-19 02:32:00,26.4,7.0,30.17,SW,225,6.0,12.1,43,0.00,,,0.00,pywws,2013-01-19 07:32:00,
2013-01-19 02:38:00,26.6,6.6,30.16,South,180,4.5,6.9,42,0.00,,,0.00,pywws,2013-01-19 07:38:00,
2013-01-19 02:44:00,26.4,7.0,30.16,West,270,2.2,4.5,43,0.00,,,0.00,pywws,2013-01-19 07:44:00,
2013-01-19 02:49:00,26.4,7.0,30.17,SW,225,2.2,5.4,43,0.00,,,0.00,pywws,2013-01-19 07:49:00,
2013-01-19 02:55:00,26.4,7.0,30.16,NW,315,5.4,9.2,43,0.00,,,0.00,pywws,2013-01-19 07:55:00,
2013-01-19 03:00:00,26.4,7.0,30.16,West,270,4.5,5.4,43,0.00,,,0.00,pywws,2013-01-19 08:00:00,
2013-01-19 03:06:00,26.4,7.0,30.16,SW,225,1.6,3.1,43,0.00,,,0.00,pywws,2013-01-19 08:06:00,
2013-01-19 03:12:00,26.6,6.6,30.16,NW,315,3.8,6.0,42,0.00,,,0.00,pywws,2013-01-19 08:12:00,
2013-01-19 03:17:00,26.6,6.6,30.16,SW,225,2.2,3.1,42,0.00,,,0.00,pywws,2013-01-19 08:17:00,
2013-01-19 03:23:00,26.6,7.2,30.15,West,270,3.8,6.0,43,0.00,,,0.00,pywws,2013-01-19 08:23:00,
2013-01-19 03:28:00,26.8,7.3,30.15,West,270,3.8,9.2,43,0.00,,,0.00,pywws,2013-01-19 08:28:00,
2013-01-19 03:34:00,27.0,7.5,30.15,SW,225,3.1,6.0,43,0.00,,,0.00,pywws,2013-01-19 08:34:00,
2013-01-19 03:40:00,26.8,7.3,30.15,SW,225,3.8,6.0,43,0.00,,,0.00,pywws,2013-01-19 08:40:00,
2013-01-19 03:45:00,27.0,7.5,30.14,SW,225,1.6,2.2,43,0.00,,,0.00,pywws,2013-01-19 08:45:00,
2013-01-19 03:51:00,26.8,7.3,30.14,SW,225,3.8,8.3,43,0.00,,,0.00,pywws,2013-01-19 08:51:00,
2013-01-19 03:56:00,27.0,7.5,30.14,West,270,6.9,9.8,43,0.00,,,0.00,pywws,2013-01-19 08:56:00,
2013-01-19 04:02:00,27.1,7.6,30.14,SE,135,3.1,6.9,43,0.00,,,0.00,pywws,2013-01-19 09:02:00,
2013-01-19 04:08:00,27.1,8.2,30.14,SW,225,3.1,6.0,44,0.00,,,0.00,pywws,2013-01-19 09:08:00,
2013-01-19 04:13:00,27.0,8.0,30.14,West,270,3.1,4.5,44,0.00,,,0.00,pywws,2013-01-19 09:13:00,
2013-01-19 04:19:00,27.0,8.0,30.13,SW,225,2.2,4.5,44,0.00,,,0.00,pywws,2013-01-19 09:19:00,
2013-01-19 04:24:00,27.1,8.2,30.13,NW,315,3.8,7.6,44,0.00,,,0.00,pywws,2013-01-19 09:24:00,
2013-01-19 04:30:00,27.1,8.6,30.13,West,270,3.8,8.3,45,0.00,,,0.00,pywws,2013-01-19 09:30:00,
2013-01-19 04:36:00,27.1,8.6,30.12,SW,225,2.2,3.8,45,0.00,,,0.00,pywws,2013-01-19 09:36:00,
2013-01-19 04:41:00,27.1,8.6,30.13,WNW,292,3.1,6.0,45,0.00,,,0.00,pywws,2013-01-19 09:41:00,
2013-01-19 04:47:00,27.3,9.3,30.13,SW,225,4.5,8.3,46,0.00,,,0.00,pywws,2013-01-19 09:47:00,
2013-01-19 04:52:00,27.5,9.5,30.12,SW,225,3.1,4.5,46,0.00,,,0.00,pywws,2013-01-19 09:52:00,
2013-01-19 04:58:00,27.5,9.5,30.12,West,270,3.1,6.0,46,0.00,,,0.00,pywws,2013-01-19 09:58:00,
2013-01-19 05:04:00,27.5,9.5,30.12,SW,225,1.6,3.8,46,0.00,,,0.00,pywws,2013-01-19 10:04:00,
2013-01-19 05:09:00,27.5,9.9,30.12,South,180,3.1,4.5,47,0.00,,,0.00,pywws,2013-01-19 10:09:00,
2013-01-19 05:15:00,27.7,10.6,30.12,North,0,2.2,4.5,48,0.00,,,0.00,pywws,2013-01-19 10:15:00,
2013-01-19 05:20:00,27.7,11.0,30.11,WSW,248,3.1,6.0,49,0.00,,,0.00,pywws,2013-01-19 10:20:00,
2013-01-19 05:26:00,27.7,11.5,30.11,East,90,3.1,4.5,50,0.00,,,0.00,pywws,2013-01-19 10:26:00,
2013-01-19 05:32:00,27.7,11.5,30.10,West,270,6.0,10.7,50,0.00,,,0.00,pywws,2013-01-19 10:32:00,
2013-01-19 05:37:00,27.9,12.1,30.10,SW,225,3.8,6.0,51,0.00,,,0.00,pywws,2013-01-19 10:37:00,
2013-01-19 05:43:00,27.9,12.1,30.10,SW,225,3.8,6.0,51,0.00,,,0.00,pywws,2013-01-19 10:43:00,
2013-01-19 05:48:00,27.9,12.1,30.10,SW,225,3.8,6.0,51,0.00,,,0.00,pywws,2013-01-19 10:48:00,
2013-01-19 05:54:00,27.9,12.1,30.10,SW,225,4.5,6.9,51,0.00,,,0.00,pywws,2013-01-19 10:54:00,
2013-01-19 06:00:00,28.0,12.3,30.10,WNW,292,3.1,6.0,51,0.00,,,0.00,pywws,2013-01-19 11:00:00,
2013-01-19 06:05:00,28.0,12.7,30.10,SSE,158,6.0,9.8,52,0.00,,,0.00,pywws,2013-01-19 11:05:00,
2013-01-19 06:11:00,28.0,12.7,30.10,West,270,4.5,8.3,52,0.00,,,0.00,pywws,2013-01-19 11:11:00,
2013-01-19 06:19:00,28.0,13.1,30.10,West,270,2.2,4.5,53,0.00,,,0.00,pywws,2013-01-19 11:19:00,
2013-01-19 06:24:00,28.2,13.3,30.11,SW,225,3.8,5.4,53,0.00,,,0.00,pywws,2013-01-19 11:24:00,
2013-01-19 06:29:00,28.0,13.6,30.10,West,270,3.1,6.9,54,0.00,,,0.00,pywws,2013-01-19 11:29:00,
2013-01-19 06:34:00,28.2,13.7,30.10,South,180,3.8,8.3,54,0.00,,,0.00,pywws,2013-01-19 11:34:00,
2013-01-19 06:45:00,28.2,14.2,30.09,North,0,5.4,7.6,55,0.00,,,0.00,pywws,2013-01-19 11:45:00,
2013-01-19 06:50:00,28.2,14.6,30.09,SW,225,3.8,6.0,56,0.00,,,0.00,pywws,2013-01-19 11:50:00,
2013-01-19 06:55:00,28.4,16.3,30.10,West,270,5.4,8.3,60,0.00,,,0.00,pywws,2013-01-19 11:55:00,
2013-01-19 07:00:00,28.4,16.3,30.09,West,270,4.5,7.6,60,0.00,,,0.00,pywws,2013-01-19 12:00:00,
2013-01-19 07:05:00,28.4,16.3,30.10,West,270,4.5,7.6,60,0.00,,,0.00,pywws,2013-01-19 12:05:00,
2013-01-19 07:10:00,28.4,16.7,30.09,SW,225,3.1,4.5,61,0.00,,,0.00,pywws,2013-01-19 12:10:00,
2013-01-19 07:20:00,28.6,16.9,30.09,SW,225,6.0,9.2,61,0.00,,,0.00,pywws,2013-01-19 12:20:00,
2013-01-19 07:25:00,28.6,16.9,30.09,SW,225,3.1,4.5,61,0.00,,,0.00,pywws,2013-01-19 12:25:00,
2013-01-19 07:35:00,28.8,17.4,30.09,SW,225,4.5,5.4,62,0.00,,,0.00,pywws,2013-01-19 12:35:00,
2013-01-19 07:48:00,28.8,17.4,30.09,SW,225,5.4,7.6,62,0.00,,,0.00,pywws,2013-01-19 12:48:00,
2013-01-19 07:53:00,29.1,17.7,30.08,West,270,4.5,8.3,62,0.00,,,0.00,pywws,2013-01-19 12:53:00,
2013-01-19 07:59:00,29.1,17.7,30.08,WNW,292,4.5,6.9,62,0.00,,,0.00,pywws,2013-01-19 12:59:00,
2013-01-19 08:04:00,29.1,18.1,30.08,East,90,4.5,6.0,63,0.00,,,0.00,pywws,2013-01-19 13:04:00,
2013-01-19 08:10:00,29.3,18.3,30.08,West,270,4.5,9.2,63,0.00,,,0.00,pywws,2013-01-19 13:10:00,
2013-01-19 08:16:00,29.3,18.3,30.08,South,180,5.4,7.6,63,0.00,,,0.00,pywws,2013-01-19 13:16:00,
2013-01-19 08:21:00,29.5,18.5,30.08,North,0,6.0,9.2,63,0.00,,,0.00,pywws,2013-01-19 13:21:00,
2013-01-19 08:27:00,29.7,18.6,30.08,SE,135,4.5,6.9,63,0.00,,,0.00,pywws,2013-01-19 13:27:00,
2013-01-19 08:33:00,29.8,19.2,30.08,West,270,6.9,9.8,64,0.00,,,0.00,pywws,2013-01-19 13:33:00,
2013-01-19 08:38:00,30.0,19.0,30.08,NW,315,3.8,6.0,63,0.00,,,0.00,pywws,2013-01-19 13:38:00,
2013-01-19 08:44:00,30.2,19.1,30.08,West,270,6.9,9.8,63,0.00,,,0.00,pywws,2013-01-19 13:44:00,
2013-01-19 08:49:00,30.6,19.1,30.08,West,270,3.8,6.0,62,0.00,,,0.00,pywws,2013-01-19 13:49:00,
2013-01-19 08:55:00,30.9,19.5,30.08,North,0,4.5,9.8,62,0.00,,,0.00,pywws,2013-01-19 13:55:00,
2013-01-19 09:01:00,31.3,19.8,30.08,SW,225,5.4,7.6,62,0.00,,,0.00,pywws,2013-01-19 14:01:00,
2013-01-19 09:06:00,32.0,19.7,30.08,South,180,5.4,8.3,60,0.00,,,0.00,pywws,2013-01-19 14:06:00,
2013-01-19 09:12:00,32.4,20.0,30.08,North,0,5.4,7.6,60,0.00,,,0.00,pywws,2013-01-19 14:12:00,
2013-01-19 09:17:00,32.4,20.0,30.08,SW,225,5.4,7.6,60,0.00,,,0.00,pywws,2013-01-19 14:17:00,
2013-01-19 09:23:00,32.5,20.2,30.08,West,270,5.4,8.3,60,0.00,,,0.00,pywws,2013-01-19 14:23:00,
2013-01-19 09:28:00,32.7,20.4,30.08,NW,315,6.0,9.2,60,0.00,,,0.00,pywws,2013-01-19 14:28:00,
2013-01-19 09:34:00,32.7,20.4,30.07,SW,225,5.4,8.3,60,0.00,,,0.00,pywws,2013-01-19 14:34:00,
2013-01-19 09:40:00,32.9,20.2,30.07,SW,225,7.6,10.7,59,0.00,,,0.00,pywws,2013-01-19 14:40:00,
2013-01-19 09:45:00,33.1,20.3,30.07,West,270,5.4,9.2,59,0.00,,,0.00,pywws,2013-01-19 14:45:00,
2013-01-19 09:51:00,33.3,20.5,30.06,SW,225,6.0,10.7,59,0.00,,,0.00,pywws,2013-01-19 14:51:00,
2013-01-19 09:56:00,33.3,20.5,30.07,West,270,6.0,10.7,59,0.00,,,0.00,pywws,2013-01-19 14:56:00,
2013-01-19 10:02:00,33.6,20.8,30.07,SW,225,5.4,13.0,59,0.00,,,0.00,pywws,2013-01-19 15:02:00,
2013-01-19 10:08:00,33.8,20.2,30.06,West,270,5.4,8.3,57,0.00,,,0.00,pywws,2013-01-19 15:08:00,
2013-01-19 10:13:00,34.0,20.4,30.06,NW,315,4.5,10.7,57,0.00,,,0.00,pywws,2013-01-19 15:13:00,
2013-01-19 10:19:00,34.2,20.5,30.06,SW,225,5.4,7.6,57,0.00,,,0.00,pywws,2013-01-19 15:19:00,
2013-01-19 10:24:00,34.5,20.9,30.06,NW,315,4.5,7.6,57,0.00,,,0.00,pywws,2013-01-19 15:24:00,
2013-01-19 10:30:00,34.7,20.6,30.05,SE,135,4.5,6.9,56,0.00,,,0.00,pywws,2013-01-19 15:30:00,
2013-01-19 10:36:00,34.9,20.8,30.05,West,270,6.0,9.8,56,0.00,,,0.00,pywws,2013-01-19 15:36:00,
2013-01-19 10:41:00,35.4,21.3,30.05,WSW,248,3.1,4.5,56,0.00,,,0.00,pywws,2013-01-19 15:41:00,
2013-01-19 10:47:00,35.8,20.8,30.04,SW,225,5.4,9.8,54,0.00,,,0.00,pywws,2013-01-19 15:47:00,
2013-01-19 10:52:00,35.8,20.8,30.04,West,270,4.5,9.2,54,0.00,,,0.00,pywws,2013-01-19 15:52:00,
2013-01-19 10:58:00,36.3,21.3,30.04,West,270,3.8,5.4,54,0.00,,,0.00,pywws,2013-01-19 15:58:00,
2013-01-19 11:04:00,36.7,21.2,30.03,NW,315,1.6,3.1,53,0.00,,,0.00,pywws,2013-01-19 16:04:00,
2013-01-19 11:09:00,37.0,22.0,30.03,SW,225,3.1,4.5,54,0.00,,,0.00,pywws,2013-01-19 16:09:00,
2013-01-19 11:15:00,37.6,23.7,30.03,SW,225,3.8,6.0,57,0.00,,,0.00,pywws,2013-01-19 16:15:00,
2013-01-19 11:20:00,37.8,23.5,30.02,SE,135,3.1,4.5,56,0.00,,,0.00,pywws,2013-01-19 16:20:00,
2013-01-19 11:26:00,38.1,24.3,30.02,NW,315,3.1,4.5,57,0.00,,,0.00,pywws,2013-01-19 16:26:00,
2013-01-19 11:32:00,38.8,24.5,30.01,SW,225,2.2,4.5,56,0.00,,,0.00,pywws,2013-01-19 16:32:00,
2013-01-19 11:37:00,38.8,24.1,30.01,SW,225,2.2,3.8,55,0.00,,,0.00,pywws,2013-01-19 16:37:00,
2013-01-19 11:43:00,39.0,24.2,30.00,South,180,3.8,6.0,55,0.00,,,0.00,pywws,2013-01-19 16:43:00,
2013-01-19 11:48:00,39.7,24.5,29.99,South,180,2.2,3.8,54,0.00,,,0.00,pywws,2013-01-19 16:48:00,
2013-01-19 11:54:00,39.9,24.6,29.99,SW,225,0.7,2.2,54,0.00,,,0.00,pywws,2013-01-19 16:54:00,
2013-01-19 12:00:00,40.6,25.3,29.98,South,180,1.6,2.2,54,0.00,,,0.00,pywws,2013-01-19 17:00:00,
2013-01-19 12:05:00,41.2,24.4,29.98,SW,225,1.6,2.2,51,0.00,,,0.00,pywws,2013-01-19 17:05:00,
2013-01-19 12:11:00,41.2,24.9,29.98,SW,225,3.1,4.5,52,0.00,,,0.00,pywws,2013-01-19 17:11:00,
2013-01-19 12:16:00,41.0,24.3,29.98,SW,225,1.6,3.1,51,0.00,,,0.00,pywws,2013-01-19 17:16:00,
2013-01-19 12:22:00,41.2,24.4,29.97,West,270,1.6,3.1,51,0.00,,,0.00,pywws,2013-01-19 17:22:00,
2013-01-19 12:28:00,41.4,24.1,29.96,South,180,1.6,2.2,50,0.00,,,0.00,pywws,2013-01-19 17:28:00,
2013-01-19 12:33:00,41.7,24.9,29.96,West,270,2.2,3.1,51,0.00,,,0.00,pywws,2013-01-19 17:33:00,
2013-01-19 12:39:00,41.9,25.1,29.96,West,270,4.5,7.6,51,0.00,,,0.00,pywws,2013-01-19 17:39:00,
2013-01-19 12:44:00,41.9,24.6,29.95,SW,225,3.1,4.5,50,0.00,,,0.00,pywws,2013-01-19 17:44:00,
2013-01-19 12:50:00,42.4,24.6,29.95,SW,225,0.7,2.2,49,0.00,,,0.00,pywws,2013-01-19 17:50:00,
2013-01-19 12:56:00,43.2,24.3,29.95,NW,315,3.1,6.0,47,0.00,,,0.00,pywws,2013-01-19 17:56:00,
2013-01-19 13:02:00,43.3,24.0,29.94,West,270,3.1,3.8,46,0.00,,,0.00,pywws,2013-01-19 18:02:00,
2013-01-19 13:07:00,43.2,23.8,29.94,SW,225,3.1,4.5,46,0.00,,,0.00,pywws,2013-01-19 18:07:00,
2013-01-19 13:12:00,43.0,23.6,29.93,West,270,3.1,6.9,46,0.00,,,0.00,pywws,2013-01-19 18:12:00,
2013-01-19 13:17:00,43.0,23.6,29.94,WSW,248,3.8,4.5,46,0.00,,,0.00,pywws,2013-01-19 18:17:00,
2013-01-19 13:22:00,43.0,23.1,29.93,SW,225,3.1,5.4,45,0.00,,,0.00,pywws,2013-01-19 18:22:00,
2013-01-19 13:28:00,43.0,23.1,29.93,SW,225,4.5,10.7,45,0.00,,,0.00,pywws,2013-01-19 18:28:00,
2013-01-19 13:33:00,43.0,23.1,29.93,North,0,3.1,4.5,45,0.00,,,0.00,pywws,2013-01-19 18:33:00,
2013-01-19 13:39:00,43.0,23.1,29.93,West,270,3.1,4.5,45,0.00,,,0.00,pywws,2013-01-19 18:39:00,
2013-01-19 13:45:00,43.0,23.6,29.92,West,270,6.0,9.8,46,0.00,,,0.00,pywws,2013-01-19 18:45:00,
2013-01-19 13:51:00,43.0,23.1,29.92,West,270,3.1,4.5,45,0.00,,,0.00,pywws,2013-01-19 18:51:00,
2013-01-19 13:56:00,43.0,23.1,29.92,SE,135,3.1,6.0,45,0.00,,,0.00,pywws,2013-01-19 18:56:00,
2013-01-19 14:02:00,43.2,23.3,29.91,East,90,2.2,4.5,45,0.00,,,0.00,pywws,2013-01-19 19:02:00,
2013-01-19 14:07:00,43.2,23.3,29.91,SW,225,3.1,5.4,45,0.00,,,0.00,pywws,2013-01-19 19:07:00,
2013-01-19 14:14:00,43.3,23.4,29.91,SW,225,2.2,3.1,45,0.00,,,0.00,pywws,2013-01-19 19:14:00,
2013-01-19 14:19:00,43.3,23.4,29.92,West,270,6.0,9.2,45,0.00,,,0.00,pywws,2013-01-19 19:19:00,
2013-01-19 14:24:00,43.3,22.9,29.92,North,0,6.9,9.2,44,0.00,,,0.00,pywws,2013-01-19 19:24:00,
2013-01-19 14:30:00,43.7,22.7,29.91,SW,225,3.8,6.0,43,0.00,,,0.00,pywws,2013-01-19 19:30:00,
2013-01-19 14:36:00,43.5,23.1,29.91,SE,135,4.5,6.0,44,0.00,,,0.00,pywws,2013-01-19 19:36:00,
2013-01-19 14:42:00,43.5,23.1,29.91,SW,225,3.1,5.4,44,0.00,,,0.00,pywws,2013-01-19 19:42:00,
2013-01-19 14:47:00,43.5,23.1,29.91,West,270,3.1,4.5,44,0.00,,,0.00,pywws,2013-01-19 19:47:00,
2013-01-19 14:52:00,43.5,23.1,29.91,SW,225,1.6,2.2,44,0.00,,,0.00,pywws,2013-01-19 19:52:00,
2013-01-19 14:58:00,43.5,23.1,29.91,SSE,158,1.6,3.1,44,0.00,,,0.00,pywws,2013-01-19 19:58:00,
2013-01-19 15:04:00,43.5,23.1,29.91,SSW,202,3.1,6.0,44,0.00,,,0.00,pywws,2013-01-19 20:04:00,
2013-01-19 15:10:00,43.7,23.2,29.91,West,270,5.4,8.3,44,0.00,,,0.00,pywws,2013-01-19 20:10:00,
2013-01-19 15:17:00,43.7,23.2,29.91,SW,225,2.2,3.8,44,0.00,,,0.00,pywws,2013-01-19 20:17:00,
2013-01-19 15:22:00,43.5,23.1,29.91,SW,225,3.1,3.8,44,0.00,,,0.00,pywws,2013-01-19 20:22:00,
2013-01-19 15:27:00,43.5,23.1,29.90,SW,225,3.1,5.4,44,0.00,,,0.00,pywws,2013-01-19 20:27:00,
2013-01-19 15:33:00,43.5,23.6,29.90,West,270,4.5,6.0,45,0.00,,,0.00,pywws,2013-01-19 20:33:00,
2013-01-19 15:38:00,43.7,23.8,29.90,West,270,1.6,3.1,45,0.00,,,0.00,pywws,2013-01-19 20:38:00,
2013-01-19 15:44:00,43.5,23.6,29.90,West,270,3.1,4.5,45,0.00,,,0.00,pywws,2013-01-19 20:44:00,
2013-01-19 15:49:00,43.5,23.6,29.90,West,270,1.6,3.1,45,0.00,,,0.00,pywws,2013-01-19 20:49:00,
2013-01-19 15:55:00,43.5,23.6,29.90,SW,225,1.6,3.1,45,0.00,,,0.00,pywws,2013-01-19 20:55:00,
2013-01-19 16:00:00,43.3,23.4,29.89,West,270,1.6,2.2,45,0.00,,,0.00,pywws,2013-01-19 21:00:00,
2013-01-19 16:07:00,43.2,23.3,29.89,South,180,0.7,1.6,45,0.00,,,0.00,pywws,2013-01-19 21:07:00,
2013-01-19 16:12:00,43.2,23.3,29.89,SW,225,1.6,3.1,45,0.00,,,0.00,pywws,2013-01-19 21:12:00,
2013-01-19 16:17:00,43.2,23.8,29.89,North,-999,0.0,0.7,46,0.00,,,0.00,pywws,2013-01-19 21:17:00,
2013-01-19 16:23:00,42.8,23.5,29.89,West,270,0.7,1.6,46,0.00,,,0.00,pywws,2013-01-19 21:23:00,
2013-01-19 16:29:00,42.4,23.7,29.88,West,270,1.6,3.1,47,0.00,,,0.00,pywws,2013-01-19 21:29:00,
2013-01-19 16:34:00,43.0,23.1,29.88,South,180,3.1,6.0,45,0.00,,,0.00,pywws,2013-01-19 21:34:00,
2013-01-19 16:39:00,43.3,23.4,29.88,NW,315,1.6,3.1,45,0.00,,,0.00,pywws,2013-01-19 21:39:00,
2013-01-19 16:44:00,43.3,22.9,29.88,South,180,0.7,1.6,44,0.00,,,0.00,pywws,2013-01-19 21:44:00,
2013-01-19 16:50:00,43.3,23.4,29.88,SW,225,2.2,3.1,45,0.00,,,0.00,pywws,2013-01-19 21:50:00,
2013-01-19 16:55:00,43.3,22.9,29.88,SE,135,0.7,1.6,44,0.00,,,0.00,pywws,2013-01-19 21:55:00,
2013-01-19 17:00:00,43.2,23.3,29.88,South,180,0.7,1.6,45,0.00,,,0.00,pywws,2013-01-19 22:00:00,
2013-01-19 17:08:00,42.8,23.5,29.88,SE,135,0.7,1.6,46,0.00,,,0.00,pywws,2013-01-19 22:08:00,
2013-01-19 17:14:00,42.4,23.7,29.88,South,180,0.7,1.6,47,0.00,,,0.00,pywws,2013-01-19 22:14:00,
2013-01-19 17:19:00,42.1,23.8,29.87,SSE,158,0.7,1.6,48,0.00,,,0.00,pywws,2013-01-19 22:19:00,
2013-01-19 17:24:00,41.9,23.7,29.87,East,90,1.6,2.2,48,0.00,,,0.00,pywws,2013-01-19 22:24:00,
2013-01-19 17:31:00,42.1,24.3,29.87,North,-999,0.0,1.6,49,0.00,,,0.00,pywws,2013-01-19 22:31:00,
2013-01-19 17:40:00,42.1,23.8,29.87,SE,135,0.7,1.6,48,0.00,,,0.00,pywws,2013-01-19 22:40:00,
2013-01-19 17:45:00,42.1,23.8,29.87,South,180,0.7,1.6,48,0.00,,,0.00,pywws,2013-01-19 22:45:00,
2013-01-19 17:51:00,42.1,24.3,29.87,SW,225,0.7,2.2,49,0.00,,,0.00,pywws,2013-01-19 22:51:00,
2013-01-19 17:56:00,42.3,24.0,29.87,SW,225,0.7,1.6,48,0.00,,,0.00,pywws,2013-01-19 22:56:00,
2013-01-19 18:01:00,42.3,24.0,29.87,WSW,248,2.2,3.1,48,0.00,,,0.00,pywws,2013-01-19 23:01:00,
2013-01-19 18:07:00,43.2,23.3,29.87,West,270,1.6,3.1,45,0.00,,,0.00,pywws,2013-01-19 23:07:00,
2013-01-19 18:12:00,43.7,23.8,29.87,West,270,1.6,3.1,45,0.00,,,0.00,pywws,2013-01-19 23:12:00,
2013-01-19 18:18:00,43.9,23.4,29.87,SW,225,0.7,1.6,44,0.00,,,0.00,pywws,2013-01-19 23:18:00,
2013-01-19 18:24:00,44.1,23.6,29.86,SW,225,2.2,3.1,44,0.00,,,0.00,pywws,2013-01-19 23:24:00,
2013-01-19 18:30:00,44.1,23.6,29.86,SW,225,2.2,3.1,44,0.00,,,0.00,pywws,2013-01-19 23:30:00,
2013-01-19 18:36:00,44.4,23.9,29.86,South,180,3.8,5.4,44,0.00,,,0.00,pywws,2013-01-19 23:36:00,
2013-01-19 18:41:00,44.6,23.5,29.86,South,180,1.6,3.1,43,0.00,,,0.00,pywws,2013-01-19 23:41:00,
2013-01-19 18:47:00,44.2,23.7,29.86,SW,225,1.6,3.8,44,0.00,,,0.00,pywws,2013-01-19 23:47:00,
2013-01-19 18:53:00,44.1,23.6,29.86,NW,315,3.1,4.5,44,0.00,,,0.00,pywws,2013-01-19 23:53:00,
2013-01-19 18:58:00,43.9,23.9,29.86,West,270,0.7,2.2,45,0.00,,,0.00,pywws,2013-01-19 23:58:00,
2013-01-19 19:04:00,43.5,23.6,29.86,SW,225,1.6,3.1,45,0.00,,,0.00,pywws,2013-01-20 00:04:00,
2013-01-19 19:09:00,43.5,24.1,29.86,South,180,2.2,3.8,46,0.00,,,0.00,pywws,2013-01-20 00:09:00,
2013-01-19 19:15:00,43.5,24.1,29.86,East,90,1.6,2.2,46,0.00,,,0.00,pywws,2013-01-20 00:15:00,
2013-01-19 19:20:00,43.7,24.3,29.86,NW,315,2.2,5.4,46,0.00,,,0.00,pywws,2013-01-20 00:20:00,
2013-01-19 19:25:00,43.9,24.5,29.85,NW,315,3.1,5.4,46,0.00,,,0.00,pywws,2013-01-20 00:25:00,
2013-01-19 19:31:00,43.7,24.8,29.85,NW,315,3.8,6.0,47,0.00,,,0.00,pywws,2013-01-20 00:31:00,
2013-01-19 19:36:00,43.7,24.8,29.85,West,270,1.6,3.1,47,0.00,,,0.00,pywws,2013-01-20 00:36:00,
2013-01-19 19:41:00,43.9,25.0,29.85,SW,225,2.2,3.8,47,0.00,,,0.00,pywws,2013-01-20 00:41:00,
2013-01-19 19:50:00,43.9,25.0,29.85,SW,225,2.2,3.8,47,0.00,,,0.00,pywws,2013-01-20 00:50:00,
2013-01-19 19:56:00,43.7,24.8,29.84,SW,225,3.1,4.5,47,0.00,,,0.00,pywws,2013-01-20 00:56:00,
2013-01-19 20:01:00,43.7,24.8,29.84,North,0,2.2,4.5,47,0.00,,,0.00,pywws,2013-01-20 01:01:00,
2013-01-19 20:06:00,43.5,24.6,29.84,South,180,4.5,7.6,47,0.00,,,0.00,pywws,2013-01-20 01:06:00,
2013-01-19 20:11:00,43.5,25.1,29.84,SW,225,3.1,4.5,48,0.00,,,0.00,pywws,2013-01-20 01:11:00,
2013-01-19 20:17:00,43.5,25.1,29.84,West,270,3.8,6.0,48,0.00,,,0.00,pywws,2013-01-20 01:17:00,
2013-01-19 20:22:00,43.7,25.3,29.84,SW,225,3.8,5.4,48,0.00,,,0.00,pywws,2013-01-20 01:22:00,
2013-01-19 20:28:00,43.5,25.1,29.83,West,270,1.6,4.5,48,0.00,,,0.00,pywws,2013-01-20 01:28:00,
2013-01-19 20:33:00,43.2,25.3,29.83,NW,315,3.1,6.9,49,0.00,,,0.00,pywws,2013-01-20 01:33:00,
2013-01-19 20:39:00,43.3,25.5,29.83,SW,225,2.2,4.5,49,0.00,,,0.00,pywws,2013-01-20 01:39:00,
2013-01-19 20:44:00,43.3,25.5,29.83,South,180,3.1,3.8,49,0.00,,,0.00,pywws,2013-01-20 01:44:00,
2013-01-19 20:51:00,42.8,25.0,29.83,NW,315,4.5,6.0,49,0.00,,,0.00,pywws,2013-01-20 01:51:00,
2013-01-19 20:56:00,43.2,25.3,29.82,West,270,3.8,5.4,49,0.00,,,0.00,pywws,2013-01-20 01:56:00,
2013-01-19 21:02:00,43.0,25.1,29.82,West,270,2.2,3.8,49,0.00,,,0.00,pywws,2013-01-20 02:02:00,
2013-01-19 21:07:00,42.8,25.0,29.82,West,270,6.0,9.2,49,0.00,,,0.00,pywws,2013-01-20 02:07:00,
2013-01-19 21:12:00,43.2,25.3,29.81,West,270,4.5,8.3,49,0.00,,,0.00,pywws,2013-01-20 02:12:00,
2013-01-19 21:18:00,43.0,25.1,29.81,West,270,3.1,4.5,49,0.00,,,0.00,pywws,2013-01-20 02:18:00,
2013-01-19 21:23:00,42.8,25.0,29.81,West,270,3.8,5.4,49,0.00,,,0.00,pywws,2013-01-20 02:23:00,
2013-01-19 21:28:00,42.8,25.5,29.81,SW,225,3.8,6.9,50,0.00,,,0.00,pywws,2013-01-20 02:28:00,
2013-01-19 21:34:00,42.4,25.6,29.81,SW,225,4.5,8.3,51,0.00,,,0.00,pywws,2013-01-20 02:34:00,
2013-01-19 21:40:00,42.4,26.1,29.80,West,270,3.8,6.9,52,0.00,,,0.00,pywws,2013-01-20 02:40:00,
2013-01-19 21:45:00,42.4,26.1,29.80,NW,315,4.5,8.3,52,0.00,,,0.00,pywws,2013-01-20 02:45:00,
2013-01-19 21:51:00,42.4,26.1,29.80,WSW,248,3.8,6.0,52,0.00,,,0.00,pywws,2013-01-20 02:51:00,
2013-01-19 21:56:00,42.3,26.4,29.80,West,270,3.8,5.4,53,0.00,,,0.00,pywws,2013-01-20 02:56:00,
2013-01-19 22:01:00,42.3,25.9,29.79,West,270,4.5,8.3,52,0.00,,,0.00,pywws,2013-01-20 03:01:00,
2013-01-19 22:07:00,42.3,25.9,29.79,West,270,6.0,8.3,52,0.00,,,0.00,pywws,2013-01-20 03:07:00,
2013-01-19 22:12:00,42.3,26.4,29.79,South,180,3.1,4.5,53,0.00,,,0.00,pywws,2013-01-20 03:12:00,
2013-01-19 22:18:00,42.1,26.2,29.79,WNW,292,4.5,8.3,53,0.00,,,0.00,pywws,2013-01-20 03:18:00,
2013-01-19 22:23:00,41.9,26.0,29.79,SE,135,4.5,10.7,53,0.00,,,0.00,pywws,2013-01-20 03:23:00,
2013-01-19 22:29:00,41.9,26.0,29.79,NW,315,3.8,6.9,53,0.00,,,0.00,pywws,2013-01-20 03:29:00,
2013-01-19 22:35:00,41.7,25.9,29.78,SW,225,3.8,6.9,53,0.00,,,0.00,pywws,2013-01-20 03:35:00,
2013-01-19 22:40:00,41.7,25.9,29.78,West,270,3.8,6.0,53,0.00,,,0.00,pywws,2013-01-20 03:40:00,
2013-01-19 22:45:00,41.7,25.9,29.78,North,0,5.4,8.3,53,0.00,,,0.00,pywws,2013-01-20 03:45:00,
2013-01-19 22:51:00,41.7,25.9,29.78,West,270,3.8,6.9,53,0.00,,,0.00,pywws,2013-01-20 03:51:00,
2013-01-19 22:57:00,41.5,26.1,29.77,SW,225,6.9,9.8,54,0.00,,,0.00,pywws,2013-01-20 03:57:00,
2013-01-19 23:02:00,41.7,26.3,29.77,SW,225,7.6,14.5,54,0.00,,,0.00,pywws,2013-01-20 04:02:00,
2013-01-19 23:10:00,41.5,26.1,29.77,West,270,5.4,8.3,54,0.00,,,0.00,pywws,2013-01-20 04:10:00,
2013-01-19 23:16:00,41.5,26.1,29.76,SW,225,7.6,13.6,54,0.00,,,0.00,pywws,2013-01-20 04:16:00,
2013-01-19 23:21:00,41.7,26.3,29.76,SW,225,4.5,8.3,54,0.00,,,0.00,pywws,2013-01-20 04:21:00,
2013-01-19 23:26:00,41.5,26.1,29.75,SE,135,3.8,6.9,54,0.00,,,0.00,pywws,2013-01-20 04:26:00,
2013-01-19 23:31:00,41.4,26.0,29.75,WSW,248,4.5,7.6,54,0.00,,,0.00,pywws,2013-01-20 04:31:00,
2013-01-19 23:36:00,41.4,26.0,29.75,SW,225,1.6,3.1,54,0.00,,,0.00,pywws,2013-01-20 04:36:00,
2013-01-19 23:41:00,41.4,26.0,29.75,NW,315,4.5,8.3,54,0.00,,,0.00,pywws,2013-01-20 04:41:00,
2013-01-19 23:47:00,41.4,26.0,29.75,North,0,5.4,7.6,54,0.00,,,0.00,pywws,2013-01-20 04:47:00,
2013-01-19 23:53:00,41.2,25.8,29.75,NW,315,5.4,6.9,54,0.00,,,0.00,pywws,2013-01-20 04:53:00,
2013-01-19 23:58:00,41.2,25.8,29.75,NW,315,5.4,11.4,54,0.00,,,0.00,pywws,2013-01-20 04:58:00,